Hourly Data Report for September 04, 2017

All times are specified in Local Standard Time (LST). Add 1 hour to adjust for Daylight Saving Time where and when it is observed.

SUSSEX FOUR CORNERS
NEW BRUNSWICK

45°44'30.048" N
65°31'44.039" W
47.00 m
8105210
71656
ASF

Download Data

Hourly Data (September 2017)
Hourly Data Report for September 4, 2017
Temp Definition
°C
Dew Point Temp Definition
°C
Rel Hum Definition
%
Wind Dir Definition
10's deg

Wind Spd Definition
km/h
Visibility Definition
km
Stn Press Definition
kPa
Hmdx Definition


Wind Chill Definition


Weather Definition


TIME
00:00 12.7 11.9 95 8 12   100.21     LegendNANA
01:00 13.5 12.5 94 10 20   99.99     LegendNANA
02:00 14.3 13.1 93 9 13   99.79     LegendNANA
03:00 15.0 13.8 93 10 10   99.59     LegendNANA
04:00 15.5 14.6 94 13 14   99.49     LegendNANA
05:00 15.9 15.0 95 15 17   99.41     LegendNANA
06:00 13.9 12.6 92 17 22   99.43     LegendNANA
07:00 13.6 12.1 90 18 23   99.40     LegendNANA
08:00 13.3 12.7 96 20 19   99.36     LegendNANA
09:00 14.0 13.4 96 21 21   99.43     LegendNANA
10:00 15.6 13.4 87 25 24   99.52     LegendNANA
11:00 15.1 12.1 83 24 24   99.68     LegendNANA
12:00 15.8 12.1 79 24 21   99.76     LegendNANA
13:00 16.6 11.5 72 25 29   99.82     LegendNANA
14:00 18.1 11.5 65 26 27   99.82     LegendNANA
15:00 18.4 12.2 67 25 20   99.89     LegendNANA
16:00 19.3 12.9 67 24 16   99.90     LegendNANA
17:00 19.4 12.6 64 24 19   99.95     LegendNANA
18:00 18.7 12.3 66 21 18   100.01     LegendNANA
19:00 16.8 12.6 77 19 15   100.09     LegendNANA
20:00 15.6 12.3 81 20 15   100.18     LegendNANA
21:00 15.1 11.8 81 21 14   100.19     LegendNANA
22:00 14.8 11.7 82 19 6   100.19     LegendNANA
23:00 14.8 11.9 83 20 10   100.21     LegendNANA

Notes on Data Quality.

Legend

  • E = Estimated
  • M = Missing
  • NA = Not Available
  • ‡ = Partner data that is not subject to review by the National Climate Archives
Date modified: